Main page
METAR-TAF:

METAR-TAF

Airports :

Maharana Pratap Airport

Udaipur, India

latitude: 24-37-04N, longitude: 73-53-46E, elevation: 513 m

Current weather observation

The report was made 37 minutes ago, at 03:00 UTC
Wind 3 kt from the West
Temperature 24°C
Humidity 94%
Pressure 1008 hPa
Visibility: 3000 m
Scattered clouds at a height of 1500 ft
Scattered clouds at a height of 2500 ft
Overcast at a height of 8000 ft
light rain

METAR: VAUD 230300Z 26003KT 3000 -RA SCT015 SCT025 OVC080 24/23 Q1008 NOSIG

Time: 09:07 (03:37 UTC)


TAF: missing

Weather observations and forecasts of more than 4000 airports (METAR and TAF reports).

The available stations are represented by yellow and red dots on the map.

Hover mouse over dot to see the name of the station.

Then click to see weather observations and forecasts.

To change the map : click on the green buttons with a black cross to zoom in, on the green button with a dash to zoom out, or on the green arrows for adjacent maps.


METAR-TAF: